EW8926 Weather Reports


Display with metric or nautical units.
time (UTC)temp
F
wind
direction
speed
MPH
gust
MPH
rain 1hr
in
rain 24hr
in
rain mn
in
humidity
%
barometer
mb
20260509061104 57 119 2.0 3.0 0.00 0.00 0.00 92 1019.1
20260509060605 56 132 2.0 3.0 0.00 0.00 0.00 94 1019.1
20260509060104 55 153 2.0 3.0 0.00 0.00 0.00 95 1019.1
20260509055606 54 168 2.0 3.0 0.00 0.00 0.00 96 1019.0
20260509055104 54 165 2.0 3.0 0.00 0.00 0.00 96 1019.0
20260509054604 53 149 2.0 3.0 0.00 0.00 0.00 96 1019.0
20260509054104 53 160 2.0 2.0 0.00 0.00 0.00 97 1019.0
20260509053604 52 134 2.0 3.0 0.00 0.00 0.00 97 1019.0
20260509053104 52 128 2.0 5.0 0.00 0.00 0.00 97 1019.0
20260509052105 51 150 2.0 3.0 0.00 0.00 0.00 97 1018.9
20260509051606 51 146 2.0 2.0 0.00 0.00 0.00 97 1018.9
20260509050604 50 141 2.0 2.0 0.00 0.00 0.00 97 1018.6
20260509050104 50 140 1.0 2.0 0.00 0.00 0.00 97 1018.6
20260509045604 50 140 0.0 2.0 0.00 0.00 0.00 96 1018.7
20260509045104 50 140 1.0 2.0 0.00 0.00 0.00 97 1018.7
20260509044619 49 140 1.0 1.0 0.00 0.00 0.00 97 1018.7
20260509044104 49 141 1.0 2.0 0.00 0.00 0.00 96 1018.6
20260509043604 49 141 0.0 3.0 0.00 0.00 0.00 96 1018.5
20260509043105 49 141 0.0 2.0 0.00 0.00 0.00 96 1018.5
20260509042604 49 141 0.0 2.0 0.00 0.00 0.00 96 1018.6
20260509041604 49 140 0.0 2.0 0.00 0.00 0.00 96 1018.6
20260509041104 49 141 0.0 0.0 0.00 0.00 0.00 95 1018.5
20260509040604 50 141 0.0 0.0 0.00 0.00 0.00 95 1018.4
20260509040105 50 140 0.0 0.0 0.00 0.00 0.00 95 1018.4
20260509035605 50 141 0.0 0.0 0.00 0.00 0.00 95 1018.5
20260509035105 50 141 0.0 0.0 0.00 0.00 0.00 95 1018.5
20260509034604 50 140 0.0 0.0 0.00 0.00 0.00 95 1018.5
20260509034104 50 141 0.0 0.0 0.00 0.00 0.00 95 1018.3
20260509033604 50 141 0.0 2.0 0.00 0.00 0.00 95 1018.2
20260509033104 50 141 0.0 2.0 0.00 0.00 0.00 95 1018.2
20260509032105 50 141 0.0 0.0 0.00 0.00 0.00 95 1018.2
20260509031604 50 141 0.0 0.0 0.00 0.00 0.00 95 1018.2
20260509031104 50 141 0.0 0.0 0.00 0.00 0.00 95 1018.3
20260509030604 50 141 0.0 0.0 0.00 0.00 0.00 95 1018.3
20260509030106 51 141 0.0 0.0 0.00 0.00 0.00 95 1018.3
20260509025605 51 141 0.0 0.0 0.00 0.00 0.00 95 1018.3
20260509025104 51 141 0.0 0.0 0.00 0.00 0.00 95 1018.3
20260509024607 51 141 0.0 0.0 0.00 0.00 0.00 95 1018.3
20260509024104 51 141 0.0 0.0 0.00 0.00 0.00 95 1018.3
20260509023611 51 141 0.0 0.0 0.00 0.00 0.00 95 1018.3
20260509023109 51 141 0.0 0.0 0.00 0.00 0.00 94 1018.3
20260509022104 51 141 0.0 0.0 0.00 0.00 0.00 95 1018.2
20260509021604 51 140 0.0 0.0 0.00 0.00 0.00 95 1018.2
20260509021104 51 140 0.0 0.0 0.00 0.00 0.00 94 1018.2
20260509020604 51 140 0.0 0.0 0.00 0.00 0.00 94 1018.2
20260509020104 52 140 0.0 0.0 0.00 0.00 0.00 94 1018.2
20260509015604 52 140 0.0 0.0 0.00 0.00 0.00 94 1018.2
20260509014604 52 141 0.0 0.0 0.00 0.00 0.00 94 1018.2
20260509014104 52 141 0.0 0.0 0.00 0.00 0.00 95 1018.1
20260509013604 52 141 0.0 0.0 0.00 0.00 0.00 95 1018.1
20260509013103 52 141 0.0 0.0 0.00 0.00 0.00 95 1018.1
20260509012104 52 141 0.0 0.0 0.00 0.00 0.00 94 1018.0
20260509011604 52 141 0.0 0.0 0.00 0.00 0.00 94 1018.0
20260509011104 52 141 0.0 0.0 0.00 0.00 0.00 94 1018.1
20260509010604 52 141 0.0 0.0 0.00 0.00 0.00 94 1018.2
20260509005611 52 141 0.0 0.0 0.00 0.00 0.00 94 1018.3
20260509004604 52 141 0.0 0.0 0.00 0.00 0.00 94 1018.4
20260509004104 52 141 1.0 0.0 0.00 0.00 0.00 94 1018.3
20260509003604 52 141 1.0 2.0 0.00 0.00 0.00 94 1018.3
20260509003104 52 141 1.0 2.0 0.00 0.00 0.00 94 1018.3
20260509002104 53 141 2.0 2.0 0.00 0.00 0.00 93 1018.2
20260509001104 53 148 2.0 3.0 0.00 0.00 0.00 93 1018.2
20260509000605 53 148 2.0 2.0 0.00 0.00 0.00 93 1018.2
20260508235604 53 148 1.0 3.0 0.00 0.00 0.00 93 1018.3
20260508233605 53 148 2.0 2.0 0.00 0.00 0.00 93 1018.2
20260508233104 53 148 1.0 2.0 0.00 0.00 0.00 93 1018.2
20260508232607 53 148 0.0 3.0 0.00 0.00 0.00 93 1018.2
20260508232104 53 148 1.0 2.0 0.00 0.00 0.00 93 1018.2
20260508231604 53 148 1.0 0.0 0.00 0.00 0.00 93 1018.2
20260508230606 53 148 1.0 2.0 0.00 0.00 0.00 93 1018.2
20260508230104 53 148 1.0 2.0 0.00 0.00 0.00 93 1018.2
20260508225604 53 148 1.0 3.0 0.00 0.00 0.00 93 1018.1
20260508225104 53 148 2.0 2.0 0.00 0.00 0.00 93 1018.1
20260508224605 54 148 2.0 2.0 0.00 0.00 0.00 93 1018.1
20260508224119 54 148 2.0 2.0 0.00 0.00 0.00 93 1018.0
20260508223605 54 148 2.0 2.0 0.00 0.00 0.00 93 1018.0
20260508223104 54 148 2.0 2.0 0.00 0.00 0.00 93 1018.0
20260508222606 54 148 2.0 2.0 0.00 0.00 0.00 93 1018.0
20260508222104 54 148 1.0 3.0 0.00 0.00 0.00 93 1018.0
20260508221604 54 148 1.0 2.0 0.00 0.00 0.00 92 1018.0
20260508221104 54 149 2.0 2.0 0.00 0.00 0.00 92 1018.0
20260508215605 55 147 1.0 3.0 0.00 0.00 0.00 92 1017.9
20260508214610 55 147 2.0 3.0 0.00 0.00 0.00 91 1017.9
20260508213604 55 147 1.0 2.0 0.00 0.00 0.00 91 1017.8
20260508213105 55 147 1.0 5.0 0.00 0.00 0.00 91 1017.8
20260508212604 56 121 1.0 2.0 0.00 0.00 0.00 91 1017.8
20260508212104 56 121 1.0 2.0 0.00 0.00 0.00 91 1017.8
20260508211603 56 114 0.0 2.0 0.00 0.00 0.00 91 1017.8
20260508211104 56 105 0.0 2.0 0.00 0.00 0.00 91 1017.7
20260508210605 56 105 0.0 2.0 0.00 0.00 0.00 90 1017.6
20260508210105 56 105 0.0 0.0 0.00 0.00 0.00 90 1017.6
20260508205606 56 105 0.0 0.0 0.00 0.00 0.00 90 1017.5
20260508205104 57 105 1.0 0.0 0.00 0.00 0.00 89 1017.5
20260508204609 57 105 1.0 2.0 0.00 0.00 0.00 89 1017.5
20260508204104 57 105 1.0 2.0 0.00 0.00 0.00 88 1017.6
20260508203604 57 105 0.0 2.0 0.00 0.00 0.00 87 1017.6
20260508203105 58 105 0.0 3.0 0.00 0.00 0.00 86 1017.6
20260508202604 58 335 0.0 0.0 0.00 0.00 0.00 87 1017.6
20260508202104 58 335 0.0 0.0 0.00 0.00 0.00 86 1017.6
20260508201604 58 335 0.0 0.0 0.00 0.00 0.00 86 1017.6
20260508201104 59 335 0.0 0.0 0.00 0.00 0.00 86 1017.5
20260508200604 59 335 0.0 0.0 0.00 0.00 0.00 85 1017.5
20260508200105 59 335 0.0 1.0 0.00 0.00 0.00 85 1017.5
20260508195104 60 335 0.0 2.0 0.00 0.00 0.00 84 1017.3
20260508194604 60 335 0.0 0.0 0.00 0.00 0.00 83 1017.3
20260508194104 60 335 0.0 2.0 0.00 0.00 0.00 83 1017.2
20260508193111 61 335 0.0 0.0 0.00 0.00 0.00 80 1017.1
20260508192604 61 335 0.0 2.0 0.00 0.00 0.00 80 1016.9
20260508192107 62 335 0.0 0.0 0.00 0.00 0.00 79 1016.8
20260508191604 62 335 0.0 0.0 0.00 0.00 0.00 78 1016.8
20260508191104 62 335 0.0 0.0 0.00 0.00 0.00 78 1016.7
20260508185605 63 335 0.0 2.0 0.00 0.00 0.00 76 1016.6
20260508185104 63 335 0.0 2.0 0.00 0.00 0.00 75 1016.6
20260508184604 64 335 0.0 2.0 0.00 0.00 0.00 75 1016.6
20260508183604 65 335 1.0 1.0 0.00 0.00 0.00 70 1016.3
20260508183104 65 335 1.0 2.0 0.00 0.00 0.00 70 1016.3
20260508182604 65 335 1.0 2.0 0.00 0.00 0.00 69 1016.2
20260508181604 66 336 2.0 3.0 0.00 0.00 0.00 66 1016.2
20260508181104 66 12 1.0 3.0 0.00 0.00 0.00 66 1016.1
20260508180604 66 341 1.0 5.0 0.00 0.00 0.00 64 1016.0
20260508180108 67 334 1.0 3.0 0.00 0.00 0.00 62 1016.0
20260508175604 67 334 1.0 2.0 0.00 0.00 0.00 61 1015.9
20260508173605 67 332 2.0 3.0 0.00 0.00 0.00 59 1015.8
20260508173104 68 343 2.0 5.0 0.00 0.00 0.00 59 1015.8
20260508172604 68 355 2.0 2.0 0.00 0.00 0.00 60 1015.8
20260508172105 68 14 2.0 5.0 0.00 0.00 0.00 61 1015.8
20260508171604 68 7 2.0 3.0 0.00 0.00 0.00 61 1015.8
20260508171104 69 2 2.0 3.0 0.00 0.00 0.00 60 1015.8
20260508170604 69 339 2.0 5.0 0.00 0.00 0.00 62 1015.8
20260508170104 69 349 2.0 5.0 0.00 0.00 0.00 61 1015.8
20260508165605 69 14 2.0 3.0 0.00 0.00 0.00 60 1015.8
20260508165104 69 344 2.0 3.0 0.00 0.00 0.00 61 1015.8
20260508163104 70 313 2.0 2.0 0.00 0.00 0.00 59 1015.7
20260508162104 71 344 2.0 3.0 0.00 0.00 0.00 57 1015.7
20260508161103 71 344 2.0 5.0 0.00 0.00 0.00 57 1015.7
20260508160104 71 315 2.0 6.0 0.00 0.00 0.00 58 1015.7
20260508155604 71 314 2.0 7.0 0.00 0.00 0.00 59 1015.8
20260508155104 70 338 2.0 7.0 0.00 0.00 0.00 60 1015.8
20260508154604 70 26 2.0 3.0 0.00 0.00 0.00 62 1015.8
20260508154104 70 9 2.0 6.0 0.00 0.00 0.00 62 1015.8
20260508153605 70 319 2.0 5.0 0.00 0.00 0.00 62 1015.8
20260508153104 70 325 2.0 6.0 0.00 0.00 0.00 61 1015.8
20260508152604 70 38 2.0 3.0 0.00 0.00 0.00 63 1015.8
20260508152104 70 314 2.0 5.0 0.00 0.00 0.00 63 1015.8
20260508151606 70 315 2.0 6.0 0.00 0.00 0.00 63 1015.8
20260508151104 70 339 2.0 6.0 0.00 0.00 0.00 62 1015.9
20260508150604 71 324 2.0 7.0 0.00 0.00 0.00 61 1015.9
20260508150104 70 306 2.0 5.0 0.00 0.00 0.00 63 1015.9
20260508144604 70 318 2.0 5.0 0.00 0.00 0.00 64 1016.0
20260508144104 70 328 2.0 6.0 0.00 0.00 0.00 64 1016.1
20260508143607 70 313 1.0 5.0 0.00 0.00 0.00 64 1016.1
20260508143105 70 301 1.0 3.0 0.00 0.00 0.00 63 1016.1
20260508142604 69 311 1.0 2.0 0.00 0.00 0.00 65 1016.2
20260508141604 70 133 2.0 3.0 0.00 0.00 0.00 66 1016.3
20260508141104 70 133 2.0 2.0 0.00 0.00 0.00 64 1016.4
20260508140611 70 133 2.0 5.0 0.00 0.00 0.00 63 1016.4
20260508140104 70 80 1.0 5.0 0.00 0.00 0.00 66 1016.4
20260508135619 69 349 1.0 5.0 0.00 0.00 0.00 67 1016.5
20260508135104 69 335 2.0 5.0 0.00 0.00 0.00 66 1016.5
20260508134604 69 7 2.0 3.0 0.00 0.00 0.00 66 1016.5
20260508134109 69 62 2.0 3.0 0.00 0.00 0.00 66 1016.6
20260508133604 69 12 2.0 5.0 0.00 0.00 0.00 66 1016.6
20260508133107 69 70 2.0 5.0 0.00 0.00 0.00 65 1016.6
20260508131106 69 54 2.0 5.0 0.00 0.00 0.00 68 1016.8
20260508130604 69 51 2.0 5.0 0.00 0.00 0.00 69 1016.8
20260508125604 68 351 1.0 5.0 0.00 0.00 0.00 68 1016.9
20260508125104 68 301 2.0 5.0 0.00 0.00 0.00 68 1016.9
20260508123604 66 114 2.0 5.0 0.00 0.00 0.00 72 1017.0
20260508122111 67 307 2.0 6.0 0.00 0.00 0.00 70 1017.1
20260508121604 67 332 2.0 5.0 0.00 0.00 0.00 71 1017.1
20260508120116 66 205 2.0 5.0 0.00 0.00 0.00 71 1017.1
20260508115604 66 290 2.0 3.0 0.00 0.00 0.00 72 1017.0
20260508115104 66 251 1.0 5.0 0.00 0.00 0.00 72 1017.0
20260508114604 65 268 1.0 3.0 0.00 0.00 0.00 73 1017.0
20260508113606 65 265 2.0 3.0 0.00 0.00 0.00 73 1017.1
20260508113105 65 314 2.0 5.0 0.00 0.00 0.00 72 1017.1
20260508112604 64 9 2.0 5.0 0.00 0.00 0.00 74 1017.2
20260508112105 64 145 2.0 5.0 0.00 0.00 0.00 74 1017.3
20260508111605 64 219 2.0 3.0 0.00 0.00 0.00 74 1017.3
20260508110604 64 247 2.0 5.0 0.00 0.00 0.00 76 1017.4
20260508110104 64 136 1.0 3.0 0.00 0.00 0.00 76 1017.4
20260508105604 63 318 1.0 6.0 0.00 0.00 0.00 75 1017.4
20260508105111 63 313 2.0 6.0 0.00 0.00 0.00 77 1017.4
20260508104604 63 312 2.0 3.0 0.00 0.00 0.00 76 1017.4
20260508104104 63 328 2.0 3.0 0.00 0.00 0.00 78 1017.4
20260508103604 63 327 2.0 3.0 0.00 0.00 0.00 77 1017.4
20260508103104 63 337 2.0 3.0 0.00 0.00 0.00 77 1017.4
20260508102604 62 0 2.0 5.0 0.00 0.00 0.00 78 1017.4
20260508102104 62 315 2.0 2.0 0.00 0.00 0.00 79 1017.4
20260508101604 62 315 2.0 6.0 0.00 0.00 0.00 78 1017.4
20260508101104 62 329 2.0 8.0 0.00 0.00 0.00 78 1017.4
20260508100105 62 346 2.0 5.0 0.00 0.00 0.00 77 1017.4
20260508095604 62 300 2.0 6.0 0.00 0.00 0.00 76 1017.3
20260508095104 63 25 2.0 5.0 0.00 0.00 0.00 76 1017.3
20260508094604 63 328 2.0 6.0 0.00 0.00 0.00 77 1017.3
20260508094107 62 133 2.0 5.0 0.00 0.00 0.00 77 1017.3
20260508093104 62 329 2.0 5.0 0.00 0.00 0.00 78 1017.3
20260508092606 62 308 2.0 6.0 0.00 0.00 0.00 78 1017.2
20260508092104 62 160 2.0 5.0 0.00 0.00 0.00 79 1017.2
20260508091604 62 325 2.0 3.0 0.00 0.00 0.00 79 1017.2
20260508091104 61 304 2.0 5.0 0.00 0.00 0.00 80 1017.2
20260508090604 61 35 2.0 3.0 0.00 0.00 0.00 81 1017.2
20260508090104 60 316 2.0 5.0 0.00 0.00 0.00 81 1017.2
20260508085604 60 318 2.0 3.0 0.00 0.00 0.00 83 1017.1
20260508085104 59 98 3.0 3.0 0.00 0.00 0.00 83 1017.1
20260508084604 59 303 3.0 5.0 0.00 0.00 0.00 82 1017.1
20260508084105 59 322 2.0 6.0 0.00 0.00 0.00 82 1017.1
20260508083604 59 326 2.0 6.0 0.00 0.00 0.00 84 1017.1
20260508083105 59 312 2.0 6.0 0.00 0.00 0.00 83 1017.1
20260508082604 59 1 2.0 5.0 0.00 0.00 0.00 84 1017.0
20260508082105 59 328 2.0 6.0 0.00 0.00 0.00 83 1017.0
20260508081605 59 323 2.0 5.0 0.00 0.00 0.00 83 1017.0
20260508080604 59 311 2.0 5.0 0.00 0.00 0.00 83 1016.9
20260508075605 58 314 2.0 3.0 0.00 0.00 0.00 82 1016.8
20260508075119 59 314 2.0 5.0 0.00 0.00 0.00 82 1016.8
20260508074604 59 325 2.0 5.0 0.00 0.00 0.00 82 1016.8
20260508074105 59 325 1.0 5.0 0.00 0.00 0.00 83 1016.8
20260508073604 58 276 1.0 5.0 0.00 0.00 0.00 84 1016.8
20260508073105 58 307 2.0 3.0 0.00 0.00 0.00 85 1016.8
20260508072611 57 314 2.0 3.0 0.00 0.00 0.00 85 1016.7
20260508072105 57 314 1.0 5.0 0.00 0.00 0.00 86 1016.7
20260508071604 57 312 1.0 2.0 0.00 0.00 0.00 86 1016.7
20260508071104 56 312 2.0 5.0 0.00 0.00 0.00 86 1016.7
20260508070605 56 312 2.0 2.0 0.00 0.00 0.00 88 1016.7
20260508065604 56 256 2.0 3.0 0.00 0.00 0.00 88 1016.6
20260508065104 55 291 2.0 6.0 0.00 0.00 0.00 88 1016.6
20260508064605 55 180 2.0 3.0 0.00 0.00 0.00 89 1016.6
20260508064104 54 313 2.0 5.0 0.00 0.00 0.00 90 1016.5
20260508063604 54 314 2.0 5.0 0.00 0.00 0.00 90 1016.5
20260508063106 54 303 1.0 5.0 0.00 0.00 0.00 90 1016.5
20260508062604 53 310 0.0 6.0 0.00 0.00 0.00 90 1016.4
20260508062104 53 132 0.0 5.0 0.00 0.00 0.00 92 1016.4
20260508061604 52 130 0.0 0.0 0.00 0.00 0.00 93 1016.4